Location: Newark
(11.0000°N, 122.6717°E)
Time: 18:26:23
(UTC+00:00)

STARLINK 1040 - Pass Details

Date: 15 December 2019
Orbit: 339 x 344 km, 53.0° (Epoch: 17 January)

Event Time Altitude Azimuth Distance (km) Brightness Sun altitude
Rises 10:41:55 0° 210° (SSW) 2,118 7.5 -17.4°
Reaches altitude 10° 10:43:54 10° 207° (SSW) 1,284 6.2 -17.9°
Enters shadow 10:46:29 60° 159° (SSE) 396 2.8 -18.5°
